GW2217 Weather Reports


time (UTC)temp
C
wind
direction
speed
KPH
gust
KPH
rain 1hr
cm
rain 24hr
cm
rain mn
cm
humidity
%
barometer
mb
20260506133835 11 71 1.6 17.7 0.00 0.00 0.00 90 1044.4
20260506133335 11 56 3.2 17.7 0.00 0.00 0.00 90 1044.4
20260506132835 10 53 3.2 17.7 0.00 0.00 0.00 90 1044.0
20260506131818 10 83 1.6 17.7 0.00 0.00 0.00 90 1044.0
20260506125731 10 58 3.2 17.7 0.00 0.00 0.00 89 1044.1
20260506125230 10 202 1.6 17.7 0.00 0.00 0.00 89 1043.8
20260506124730 10 68 3.2 17.7 0.00 0.00 0.00 89 1043.8
20260506124229 10 68 1.6 17.7 0.00 0.00 0.00 89 1043.7
20260506123728 10 116 3.2 17.7 0.00 0.00 0.00 89 1043.9
20260506123227 11 110 1.6 17.7 0.00 0.00 0.00 89 1043.9
20260506122726 11 115 1.6 17.7 0.00 0.00 0.00 89 1044.0
20260506122225 11 47 3.2 17.7 0.00 0.00 0.00 89 1043.9
20260506121209 11 6 3.2 17.7 0.00 0.00 0.00 89 1043.8
20260506120709 11 50 1.6 17.7 0.00 0.00 0.00 89 1043.8
20260506120209 11 7 1.6 17.7 0.00 0.00 0.00 89 1043.6
20260506115709 11 151 1.6 17.7 0.00 0.00 0.00 88 1043.9
20260506115209 11 78 1.6 17.7 0.00 0.00 0.00 88 1043.7
20260506114708 11 200 1.6 17.7 0.00 0.00 0.00 88 1043.5
20260506113651 11 168 1.6 17.7 0.00 0.00 0.00 88 1043.6
20260506113151 11 71 1.6 17.7 0.00 0.00 0.00 87 1043.3
20260506112651 11 47 3.2 17.7 0.00 0.00 0.00 87 1043.2
20260506112150 11 188 3.2 17.7 0.00 0.00 0.00 87 1043.6
20260506111134 11 200 0.0 17.7 0.00 0.00 0.00 88 1043.1
20260506110119 11 184 3.2 17.7 0.00 0.00 0.00 88 1043.4
20260506105102 11 147 3.2 17.7 0.00 0.00 0.00 88 1043.1
20260506104601 11 163 1.6 17.7 0.00 0.00 0.00 89 1042.9
20260506104101 11 169 1.6 17.7 0.00 0.00 0.00 89 1043.1
20260506103601 11 335 1.6 17.7 0.00 0.00 0.00 89 1043.3
20260506103101 11 143 1.6 17.7 0.00 0.00 0.00 89 1042.9
20260506102600 11 141 1.6 17.7 0.00 0.00 0.00 90 1042.7
20260506102059 11 113 1.6 17.7 0.00 0.00 0.00 90 1043.2
20260506101559 11 184 1.6 17.7 0.00 0.00 0.00 90 1042.9
20260506100542 11 94 3.2 17.7 0.00 0.00 0.00 90 1042.8
20260506100042 11 230 1.6 17.7 0.00 0.00 0.00 90 1043.2
20260506095541 11 121 1.6 17.7 0.00 0.00 0.00 90 1042.7
20260506094524 11 189 1.6 17.7 0.00 0.00 0.00 90 1042.9
20260506093509 11 148 1.6 17.7 0.00 0.00 0.00 90 1042.7
20260506092453 11 324 1.6 17.7 0.00 0.00 0.00 89 1042.8
20260506091437 11 195 1.6 17.7 0.00 0.00 0.00 89 1042.4
20260506090936 11 176 3.2 17.7 0.00 0.00 0.00 89 1042.6
20260506090435 11 172 1.6 17.7 0.00 0.00 0.00 89 1042.1
20260506085934 11 205 1.6 17.7 0.00 0.00 0.00 89 1042.6
20260506085433 11 244 0.0 17.7 0.00 0.00 0.00 89 1042.4
20260506084932 11 102 0.0 17.7 0.00 0.00 0.00 89 1042.6
20260506084432 11 305 1.6 17.7 0.00 0.00 0.00 89 1042.3
20260506083931 11 91 1.6 17.7 0.00 0.00 0.00 89 1042.1
20260506083430 11 315 1.6 17.7 0.00 0.00 0.00 89 1042.4
20260506082929 11 127 1.6 17.7 0.00 0.00 0.00 89 1042.5
20260506082429 11 129 3.2 17.7 0.00 0.00 0.00 89 1042.3
20260506081928 11 148 1.6 17.7 0.00 0.00 0.00 90 1042.2
20260506081427 11 54 1.6 17.7 0.00 0.00 0.00 90 1042.3
20260506080927 11 104 1.6 17.7 0.00 0.00 0.00 90 1042.4
20260506080426 11 137 1.6 17.7 0.00 0.00 0.00 90 1042.2
20260506073408 11 149 0.0 17.7 0.00 0.00 0.00 89 1042.0
20260506072908 11 358 0.0 17.7 0.00 0.00 0.00 89 1041.5
20260506072408 11 300 1.6 17.7 0.00 0.00 0.00 89 1041.9
20260506071907 12 177 0.0 17.7 0.00 0.00 0.00 89 1042.1
20260506071406 12 185 0.0 17.7 0.00 0.00 0.00 89 1042.1
20260506070905 12 174 0.0 17.7 0.00 0.00 0.00 89 1041.7
20260506070405 12 234 1.6 17.7 0.00 0.00 0.00 89 1042.0
20260506062345 12 151 1.6 17.7 0.00 0.00 0.00 88 1041.3
20260506061844 12 218 0.0 17.7 0.00 0.00 0.00 88 1041.4
20260506060827 12 210 0.0 17.7 0.00 0.00 0.00 88 1041.7
20260506060327 12 158 1.6 17.7 0.00 0.00 0.00 88 1041.3
20260506051320 12 146 0.0 17.7 0.00 0.00 0.00 88 1041.7
20260506050820 12 184 0.0 17.7 0.00 0.00 0.00 88 1041.2
20260506050319 12 106 1.6 17.7 0.00 0.00 0.00 88 1041.4
20260506043231 12 49 1.6 17.7 0.00 0.00 0.00 87 1040.7
20260506042731 12 68 1.6 17.7 0.00 0.00 0.00 87 1041.1
20260506042230 12 64 0.0 17.7 0.00 0.00 0.00 86 1041.1
20260506041730 12 157 3.2 17.7 0.00 0.00 0.00 86 1041.0
20260506040714 13 154 0.0 17.7 0.00 0.00 0.00 86 1040.9
20260506040213 13 342 0.0 17.7 0.00 0.00 0.00 85 1040.7
20260506035156 13 154 0.0 17.7 0.00 0.00 0.00 84 1040.7
20260506034655 13 146 0.0 17.7 0.00 0.00 0.00 84 1040.7
20260506034155 13 141 0.0 17.7 0.00 0.00 0.00 84 1040.5
20260506033654 13 199 0.0 17.7 0.00 0.00 0.00 83 1040.4
20260506033153 13 163 0.0 17.7 0.00 0.00 0.00 83 1040.3
20260506032652 13 176 0.0 17.7 0.00 0.00 0.00 83 1040.5
20260506032151 14 7 1.6 17.7 0.00 0.00 0.00 82 1040.6
20260506031650 14 95 1.6 17.7 0.00 0.00 0.00 82 1040.6
20260506031149 14 11 1.6 17.7 0.00 0.00 0.00 82 1040.3
20260506025112 14 144 1.6 17.7 0.00 0.00 0.00 82 1040.4
20260506024612 14 61 1.6 17.7 0.00 0.00 0.00 81 1040.2
20260506023557 14 139 1.6 17.7 0.00 0.00 0.00 81 1040.3
20260506023056 14 80 1.6 17.7 0.00 0.00 0.00 81 1040.1
20260506021525 14 195 1.6 17.7 0.00 0.00 0.00 81 1040.5
20260506021025 14 356 0.0 17.7 0.00 0.00 0.00 81 1040.7
20260506015454 15 200 1.6 17.7 0.00 0.00 0.00 80 1040.8
20260506014954 15 196 0.0 17.7 0.00 0.00 0.00 80 1040.7
20260506014454 15 181 1.6 17.7 0.00 0.00 0.00 80 1040.7
20260506013953 15 216 1.6 17.7 0.00 0.00 0.00 80 1040.7
20260506013452 15 188 1.6 17.7 0.00 0.00 0.00 80 1040.6
20260506012952 15 194 1.6 17.7 0.00 0.00 0.00 79 1040.7
20260506012452 15 223 1.6 17.7 0.00 0.00 0.00 79 1040.6
20260506011952 15 216 0.0 17.7 0.00 0.00 0.00 79 1040.8
20260506011451 15 213 0.0 17.7 0.00 0.00 0.00 79 1040.5
20260506010950 15 196 1.6 17.7 0.00 0.00 0.00 79 1040.8
20260506010449 15 198 1.6 17.7 0.00 0.00 0.00 79 1040.9
20260506005949 15 102 1.6 17.7 0.00 0.00 0.00 78 1040.7
20260506005449 15 135 1.6 17.7 0.00 0.00 0.00 78 1040.8
20260506004949 15 214 0.0 17.7 0.00 0.00 0.00 78 1040.7
20260506004448 15 200 1.6 17.7 0.00 0.00 0.00 78 1040.8
20260506003431 15 223 0.0 17.7 0.00 0.00 0.00 78 1040.8
20260506002931 16 251 1.6 17.7 0.00 0.00 0.00 78 1041.0
20260506001914 16 178 1.6 17.7 0.00 0.00 0.00 78 1040.8
20260506001413 16 210 1.6 17.7 0.00 0.00 0.00 78 1040.9
20260506000912 15 21 1.6 17.7 0.00 0.00 0.00 78 1041.1
20260506000412 15 207 3.2 17.7 0.00 0.00 0.00 77 1040.9
20260505235912 15 141 1.6 17.7 0.00 0.00 0.00 77 1041.0
20260505235412 15 160 3.2 17.7 0.00 0.00 0.00 77 1041.0
20260505234912 16 192 3.2 17.7 0.00 0.00 0.00 77 1041.3
20260505234411 16 214 1.6 17.7 0.00 0.00 0.00 77 1041.5
20260505233911 16 197 1.6 17.7 0.00 0.00 0.00 77 1041.3
20260505233410 16 169 4.8 17.7 0.00 0.00 0.00 76 1041.4
20260505232910 16 194 3.2 17.7 0.00 0.00 0.00 76 1041.3
20260505232410 16 151 1.6 17.7 0.00 0.00 0.00 76 1041.2
20260505231910 16 167 3.2 17.7 0.00 0.00 0.00 75 1041.6
20260505231410 16 167 1.6 17.7 0.00 0.00 0.00 76 1041.4
20260505230909 16 264 3.2 17.7 0.00 0.00 0.00 76 1041.5
20260505230408 16 38 3.2 17.7 0.00 0.00 0.00 76 1041.3
20260505225907 16 200 1.6 17.7 0.00 0.00 0.00 76 1041.6
20260505225406 16 205 3.2 17.7 0.00 0.00 0.00 77 1041.8
20260505223833 16 177 1.6 17.7 0.00 0.00 0.00 77 1041.8
20260505223333 16 163 1.6 17.7 0.00 0.00 0.00 78 1042.1
20260505222833 16 136 1.6 17.7 0.00 0.00 0.00 79 1041.9
20260505222332 16 82 3.2 17.7 0.00 0.00 0.00 77 1041.9
20260505221832 16 171 1.6 17.7 0.00 0.00 0.00 77 1042.1
20260505221332 16 15 3.2 17.7 0.00 0.00 0.00 77 1042.0
20260505220831 16 20 1.6 17.7 0.00 0.00 0.00 78 1042.1
20260505220330 16 131 1.6 17.7 0.00 0.00 0.00 78 1042.2
20260505215830 16 135 1.6 17.7 0.00 0.00 0.00 78 1042.1
20260505214813 16 120 1.6 17.7 0.00 0.00 0.00 78 1042.5
20260505214313 16 126 1.6 17.7 0.00 0.00 0.00 77 1042.2
20260505213813 16 185 1.6 17.7 0.00 0.00 0.00 78 1042.2
20260505213313 16 147 3.2 17.7 0.00 0.00 0.00 78 1042.0
20260505212813 16 87 1.6 17.7 0.00 0.00 0.00 79 1042.4
20260505212313 16 116 3.2 17.7 0.00 0.00 0.00 76 1042.3
20260505211812 16 121 0.0 17.7 0.00 0.00 0.00 78 1042.2
20260505211312 16 143 1.6 17.7 0.00 0.00 0.00 78 1042.2
20260505210256 15 92 1.6 17.7 0.00 0.00 0.00 81 1042.1
20260505205755 15 94 1.6 17.7 0.00 0.00 0.00 81 1042.2
20260505204740 15 109 0.0 17.7 0.00 0.00 0.00 81 1042.3
20260505204240 15 59 1.6 17.7 0.00 0.00 0.00 81 1042.4
20260505203223 15 180 0.0 17.7 0.00 0.00 0.00 80 1042.6
20260505202723 15 51 0.0 17.7 0.00 0.00 0.00 80 1042.5
20260505202222 15 179 0.0 17.7 0.00 0.00 0.00 82 1042.8
20260505201722 15 185 1.6 17.7 0.00 0.00 0.00 83 1042.3
20260505201222 15 180 1.6 17.7 0.00 0.00 0.00 83 1042.2
20260505200721 15 87 1.6 17.7 0.00 0.00 0.00 82 1042.3
20260505200221 14 201 0.0 17.7 0.00 0.00 0.00 83 1042.4
20260505195206 14 175 0.0 17.7 0.00 0.00 0.00 84 1042.6
20260505194706 14 193 1.6 17.7 0.00 0.00 0.00 83 1042.5
20260505194205 14 121 1.6 17.7 0.00 0.00 0.00 82 1042.5
20260505193705 14 97 1.6 17.7 0.00 0.00 0.00 83 1042.3
20260505193204 14 191 1.6 17.7 0.00 0.00 0.00 83 1042.4
20260505192703 14 213 1.6 17.7 0.00 0.00 0.00 85 1042.2
20260505192203 14 202 1.6 17.7 0.00 0.00 0.00 85 1042.3
20260505191702 13 241 1.6 17.7 0.00 0.00 0.00 85 1042.4
20260505191202 13 181 0.0 17.7 0.00 0.00 0.00 86 1042.5
20260505190702 13 185 0.0 17.7 0.00 0.00 0.00 86 1042.4
20260505190202 13 131 1.6 17.7 0.00 0.00 0.00 86 1042.3
20260505185702 13 178 1.6 17.7 0.00 0.00 0.00 86 1042.4
20260505185203 13 199 1.6 17.7 0.00 0.00 0.00 86 1042.5
20260505184702 13 41 0.0 17.7 0.00 0.00 0.00 86 1042.2
20260505184200 13 137 1.6 17.7 0.00 0.00 0.00 85 1042.3
20260505183701 13 222 1.6 17.7 0.00 0.00 0.00 86 1042.1
20260505183200 13 306 0.0 17.7 0.00 0.00 0.00 87 1042.4
20260505181114 12 231 0.0 17.7 0.00 0.00 0.00 89 1042.1
20260505180059 12 172 1.6 17.7 0.00 0.00 0.00 88 1042.5
20260505175600 12 160 0.0 17.7 0.00 0.00 0.00 89 1042.2
20260505175059 12 150 0.0 17.7 0.00 0.00 0.00 89 1042.1
20260505174559 12 137 1.6 17.7 0.00 0.00 0.00 89 1042.2
20260505173543 12 83 0.0 17.7 0.00 0.00 0.00 89 1041.9
20260505173042 12 61 1.6 17.7 0.00 0.00 0.00 90 1041.7
20260505172541 12 64 0.0 17.7 0.00 0.00 0.00 89 1042.0
20260505172041 12 151 0.0 17.7 0.00 0.00 0.00 89 1041.7
20260505171540 12 95 0.0 17.7 0.00 0.00 0.00 90 1041.9
20260505171039 12 92 1.6 17.7 0.00 0.00 0.00 90 1042.0
20260505170539 12 65 1.6 17.7 0.00 0.00 0.00 90 1041.9
20260505165523 12 114 0.0 17.7 0.00 0.00 0.00 90 1041.7
20260505164507 12 120 1.6 17.7 0.00 0.00 0.00 90 1041.9
20260505164007 12 171 0.0 17.7 0.00 0.00 0.00 90 1041.8
20260505163506 12 177 1.6 17.7 0.00 0.00 0.00 89 1041.9
20260505163007 12 169 0.0 17.7 0.00 0.00 0.00 89 1041.8
20260505161949 12 86 0.0 17.7 0.00 0.00 0.00 90 1041.6
20260505161449 12 191 1.6 17.7 0.00 0.00 0.00 89 1042.1
20260505160948 12 90 1.6 17.7 0.00 0.00 0.00 89 1041.7
20260505160447 12 70 0.0 17.7 0.00 0.00 0.00 89 1041.5
20260505152942 12 133 1.6 17.7 0.00 0.00 0.00 90 1041.5
20260505151926 12 160 0.0 17.7 0.00 0.00 0.00 91 1041.3
20260505151427 12 117 0.0 17.7 0.00 0.00 0.00 91 1041.4
20260505150926 12 162 0.0 17.7 0.00 0.00 0.00 91 1041.4
20260505150425 12 166 0.0 17.7 0.00 0.00 0.00 91 1041.6
20260505140406 11 212 0.0 17.7 0.00 0.00 0.00 93 1040.7